Regional Weather Roundup
Issued by NWS

Home | Current Version | Previous Version | Text Only | Print | Product List | Glossary On
Versions: 1 2 3 4 5 6 7 8 9 10 11 12 13 14 15 16 17 18 19 20 21 22 23 24 25 26 27 28 29 30 31 32 33 34 35 36 37 38 39 40 41 42 43 44 45 46 47 48 49 50
000
ASUS43 KLSX 232207
RWRMO

WEATHER SUMMARY FOR MISSOURI
NATIONAL WEATHER SERVICE SPRINGFIELD MO
400 PM CST TUE JAN 23 2018

NOTE: "FAIR" INDICATES FEW OR NO CLOUDS BELOW 12,000 FEET WITH NO
       SIGNIFICANT WEATHER AND/OR OBSTRUCTIONS TO VISIBILITY.
       CURRENT SKY AND/OR WEATHER CONDITIONS ARE NOT AVAILABLE FOR
       CHILLICOTHE AND FARMINGTON.

MOZ001>031-035>038-043-044-053-054-232300-
...NORTHERN AND WESTERN MISSOURI...

CITY           SKY/WX    TMP DP  RH WIND       PRES   REMARKS
KANSAS CTY INT PTSUNNY   34  25  69 NW9       30.20S WCI  27
KANSAS C DTWN  SUNNY     36  26  67 NW7       30.20S
LEE`S SUMMIT   SUNNY     36  26  67 NW12G20   30.20R WCI  28
ST JOSEPH      CLOUDY    31  26  82 W10       30.22R WCI  22
CHILLICOTHE      N/A     32  23  69 NW8       30.21R WCI  25
KIRKSVILLE     CLOUDY    30  25  81 W14G21    30.16R WCI  19

$$
MOZ066>068-077>081-088>096-101>105-232300-
...SOUTHWEST MISSOURI...

CITY           SKY/WX    TMP DP  RH WIND       PRES   REMARKS
SPRINGFIELD    SUNNY     40  28  62 W14       30.19R
JOPLIN         SUNNY     42  29  59 NW9       30.24R
BRANSON        SUNNY     41  27  56 CALM      30.19R

$$
MOZ032>034-039>042-045>050-055>058-069>072-232300-
...CENTRAL MISSOURI...

CITY           SKY/WX    TMP DP  RH WIND       PRES   REMARKS
COLUMBIA       CLOUDY    34  26  72 W13G24    30.17R WCI  25
JEFFERSON CITY CLOUDY    36  27  69 NW13      30.19R WCI  27
ROLLA          CLOUDY    33  26  75 NW13      30.16R WCI  24
SEDALIA        SUNNY     38  29  70 W10       30.19R
WHITEMAN AFB   MOSUNNY   38  24  58 W10       30.15R
WARRENSBURG    SUNNY     37  27  65 W10       30.20R
OSAGE BEACH    PTSUNNY   36  26  67 W9        30.20R WCI  29

$$
MOZ051-052-059>065-232300-
...EAST CENTRAL MISSOURI...

CITY           SKY/WX    TMP DP  RH WIND       PRES   REMARKS
ST LOUIS INTL  CLOUDY    36  28  73 W16G24    30.14R WCI  26
SPIRIT OF STL  CLOUDY    37  28  70 NW15G22   30.15R WCI  28
ST CHARLES     CLOUDY    36  28  73 W15       30.14R WCI  27

$$
MOZ072>076-082>087-097>100-106>115-232300-
...SOUTH CENTRAL AND SOUTHEAST MISSOURI...

CITY           SKY/WX    TMP DP  RH WIND       PRES   REMARKS
CAPE GIRARDEAU CLOUDY    41  28  60 NW9       30.15R
FARMINGTON     CLOUDY    37  27  67 W14       30.14R WCI  28
POPLAR BLUFF   FAIR      46  28  49 NW8G20    30.15R
WEST PLAINS    SUNNY     41  28  60 NW7G16    30.16R

$$


USA.gov is the U.S. government's official web portal to all federal, state and local government web resources and services.